Flag Weather past 2 weeks in Lille, France

Now
41 °F

Fog.


Feels Like: 36 °F
Forecast: 45 / 54 °F
Wind: 8 mph from East

Location: Lille Airport

Current Time: Nov 21, 2014 at 4:36:02 AM

Latest Report: Nov 21, 2014 at 4:00 AM


Visibility: 2 mi

Pressure: 30.18 "Hg

Humidity: 100%

Dew point: 41 °F

Location of LilleLocation

Historic Weather in Lille — Graph

°F

Lille temperature yesterday

Maximum temperature yesterday: 46 °F (at 3:00 PM)
Minimum temperature yesterday: 41 °F (at 12:30 AM)
Average temperature yesterday: 43 °F

Past Weeks' High & Low Weather Summary

 TemperatureHumidityPressure
High59 °F (Nov 11, 2:00 PM)100% (Nov 6, 3:00 AM)30.27 "Hg (Nov 6, 3:00 AM)
Low39 °F (Nov 6, 3:00 AM)58% (Nov 6, 3:00 PM)29.47 "Hg (Nov 7, 8:00 AM)
Average48 °F91%29.73 "Hg
* Reported Nov 6 3:00 AM — Nov 21 3:30 AM, Lille, Weather by CustomWeather, © 2014

Note: Actual official high and low records may vary slightly from our data, if they occured in-between our weather recording intervals... More about our weather records

Advertising

Lille weather history for previous 24 hours

 ConditionsComfort  
Time TempWeatherWind HumidityBarometerVisibility
3:30 AM
Nov 21
41 °FFog.7 mph100%30.18 "Hg2 mi
3:00 AM41 °FFog.8 mph100%30.18 "Hg2 mi
2:30 AM41 °FFog.7 mph100%30.18 "Hg2 mi
2:00 AM41 °FFog.8 mph100%30.21 "Hg2 mi
1:30 AM41 °FFog.8 mph100%30.21 "Hg2 mi
1:00 AM41 °FFog.10 mph100%30.21 "Hg2 mi
12:30 AM43 °FFog.9 mph93%30.21 "Hg2 mi
12:00 AM43 °FFog.10 mph93%30.24 "Hg2 mi
11:30 PM
Nov 20
43 °FFog.9 mph100%30.24 "Hg2 mi
11:00 PM43 °FFog.10 mph100%30.24 "Hg1 mi
10:30 PM41 °FFog.9 mph100%30.24 "Hg1 mi
10:00 PM41 °FFog.8 mph100%30.24 "Hg1 mi
9:30 PM41 °FFog.6 mph100%30.24 "Hg2 mi
9:00 PM41 °FFog.6 mph100%30.24 "Hg2 mi
8:30 PM41 °FFog.7 mph100%30.24 "Hg2 mi
8:00 PM43 °FFog.8 mph93%30.24 "Hg2 mi
7:30 PM43 °FFog.8 mph93%30.21 "Hg2 mi
7:00 PM43 °FFog.8 mph93%30.24 "Hg2 mi
6:30 PM43 °FFog.8 mph100%30.24 "Hg2 mi
6:00 PM45 °FFog.7 mph93%30.21 "Hg2 mi
5:30 PM45 °FFog.7 mph93%30.21 "Hg2 mi
5:00 PM45 °FFog.6 mph93%30.21 "Hg3 mi
4:30 PM46 °FClear.5 mph93%30.24 "Hg4 mi
4:00 PM46 °FBroken clouds.3 mph93%30.24 "Hg4 mi
3:30 PM46 °FBroken clouds.3 mph87%30.24 "Hg4 mi
3:00 PM46 °FBroken clouds.5 mph87%30.24 "Hg3 mi
2:30 PM45 °FPartly sunny.5 mph93%30.24 "Hg3 mi
2:00 PM45 °FBroken clouds.6 mph93%30.24 "Hg3 mi
1:30 PM45 °FFog.6 mph93%30.27 "Hg3 mi
1:00 PM45 °FFog.5 mph93%30.27 "Hg3 mi
12:30 PM45 °FFog.6 mph93%30.27 "Hg2 mi
12:00 PM45 °FFog.5 mph93%30.27 "Hg2 mi
11:30 AM43 °FFog.5 mph100%30.27 "Hg1 mi
11:00 AM43 °FFog.7 mph100%30.27 "Hg1 mi
10:30 AM43 °FFog.7 mph100%30.27 "Hg1 mi
10:00 AM43 °FFog.6 mph100%30.27 "Hg1 mi
9:30 AM43 °FFog.6 mph100%30.27 "Hg1 mi
9:00 AM43 °FFog.7 mph100%30.24 "Hg1 mi
8:30 AM41 °FFog.8 mph100%30.24 "Hg1 mi
8:00 AM41 °FFog.6 mph100%30.27 "Hg1 mi
7:30 AM43 °FFog.5 mph100%30.27 "Hg1 mi
7:00 AM43 °FFog.3 mph100%30.24 "Hg2 mi
6:30 AM43 °FFog.3 mph100%30.24 "Hg2 mi
6:00 AM43 °FFog.3 mph100%30.24 "Hg1 mi
5:30 AM43 °FFog.2 mph100%30.27 "Hg1 mi
5:00 AM43 °FFog.2 mph100%30.24 "Hg1 mi
4:30 AM43 °FFog.3 mph100%30.27 "Hg1 mi
4:00 AM43 °FFog.5 mph100%30.24 "Hg1 mi
Weather by CustomWeather, © 2014

See weather overviewHow to use our weather pages